Regional Weather Roundup
Issued by NWS

Home | Current Version | Previous Version | Graphics & Text | Print | Product List | Glossary On
Versions: 1 2 3 4 5 6 7 8 9 10 11 12 13 14 15 16 17 18 19 20 21 22 23 24 25 26 27 28 29 30 31 32 33 34 35 36 37 38 39 40 41 42 43 44 45 46 47 48 49 50
000
ASUS43 KIND 090609
RWRIN

WEATHER ROUNDUP FOR INDIANA
NATIONAL WEATHER SERVICE INDIANAPOLIS IN
100 AM EST TUE FEB 09 2016

NOTE: "FAIR" INDICATES FEW OR NO CLOUDS BELOW 12,000 FEET WITH NO
SIGNIFICANT WEATHER AND/OR OBSTRUCTIONS TO VISIBILITY.

* - STATION DOES NOT REPORT WEATHER SUCH AS PRECIPITATION OR FOG.

+ - STATION NOT QUALITY CONTROLLED BY THE NATIONAL WEATHER SERVICE.
    USE DATA WITH CAUTION...ESPECIALLY DEWPOINT AND RELATIVE
    HUMIDITY OBSERVATIONS.

INZ001>003-010>013-019-020-090700-
NORTHWEST INDIANA

CITY           SKY/WX    TMP DP  RH WIND       PRES   REMARKS
GARY /AIRPORT/ LGT SNOW  25  20  82 W12       29.74S WCI  14
KNOX *+        CLOUDY    27  23  86 W9        29.70S WCI  17
LA PORTE +     CLOUDY    27  25  90 NW8       29.70S WCI  19
6HR MIN TEMP:  27; 6HR MAX TEMP:  30;

MICHIGAN CITY+ LGT SNOW  27  23  86 W9G16     29.71F WCI  17
MONTICELLO +   CLOUDY    25  18  74 W13       29.73S WCI  13
6HR MIN TEMP:  25; 6HR MAX TEMP:  26;

RENSSELAER +   CLOUDY    27  18  69 W16       29.74S WCI  14
VALPARAISO     LGT SNOW  25  21  85 W12       29.71S WCI  14
6HR MIN TEMP:  25; 6HR MAX TEMP:  28; 6HR PCP: TRACE;


$$

LMZ046-743>745-090700-
SOUTHERN LAKE MICHIGAN

STATION/POSITION TIME  TEMP    WIND        PRES    WAVE
                       AIR SEA DIR/SP/G            HT
                 (UTC) (F)     (DEG/KT/KT) (MB)    (FT)
BURNS HARBOR     0600   25     300/ 16/ 21 1006.8F
MICHIGAN CITY    0500   26     260/ 21/ 23   N/A

$$

INZ004-005-014>016-021>024-090700-
NORTH CENTRAL INDIANA

CITY           SKY/WX    TMP DP  RH WIND       PRES   REMARKS
GOSHEN         CLOUDY    27  23  85 W13       29.65F WCI  16
6HR MIN TEMP:  26; 6HR MAX TEMP:  30; 6HR PCP: TRACE;

LOGANSPORT +   CLOUDY    25  19  80 W12       29.72F WCI  14
PERU/GRISSOM   MIX PCPN  25  21  86 W14       29.68F WCI  13
6HR MIN TEMP:  24; 6HR MAX TEMP:  24; 6HR PCP: TRACE;

ROCHESTER +    LGT SNOW  28  21  74 W12       29.69F WCI  18
SOUTH BEND     FRZ RAIN  26  24  92 W13       29.67F FOG     WCI  15
6HR MIN TEMP:  26; 6HR MAX TEMP:  28; 6HR PCP:  0.07;

WARSAW +       CLOUDY    27  23  86 W10G17    29.67S WCI  17

$$

INZ006>009-017-018-025>027-090700-
NORTHEAST INDIANA

CITY           SKY/WX    TMP DP  RH WIND       PRES   REMARKS
ANGOLA *+      CLOUDY    27  27 100 W7        29.60F WCI  19
AUBURN +       CLOUDY    30  25  80 W10G17    29.64F WCI  21
FORT WAYNE     CLOUDY    28  23  81 W15       29.67S WCI  16
6HR MIN TEMP:  26; 6HR MAX TEMP:  29; 6HR PCP: TRACE;

HUNTINGTON +   CLOUDY    25  19  80 W12G20    29.68S WCI  14
6HR MIN TEMP:  24; 6HR MAX TEMP:  27;


$$

INZ028-029-035-036-043>045-051>053-090700-
WEST CENTRAL INDIANA

CITY           SKY/WX    TMP DP  RH WIND       PRES   REMARKS
GREENCASTLE +  LGT SNOW  21  12  68 W7        29.78S WCI  13
LAFAYETTE      CLOUDY    22  17  81 W18       29.75F WCI   7
6HR MIN TEMP:  22; 6HR MAX TEMP:  23; 6HR PCP: TRACE;

TERRE HAUTE    FLURRIES  20  15  81 W9        29.81F WCI   9
6HR MIN TEMP:  20; 6HR MAX TEMP:  23; 6HR PCP: TRACE;


$$

INZ030>032-037>040-046>048-054>057-064-065-090700-
CENTRAL INDIANA

CITY           SKY/WX    TMP DP  RH WIND       PRES   REMARKS
FISHERS *+     CLOUDY    21  19  93 W15       29.73F WCI   8
FRANKFORT +    CLOUDY    23  17  76 W16G23    29.75S WCI  10
6HR MIN TEMP:  23; 6HR MAX TEMP:  25;

INDIANAPOLIS   FLURRIES  22  16  78 W16       29.74F WCI   8
6HR MIN TEMP:  22; 6HR MAX TEMP:  25; 6HR PCP:  0.01;

-EAGLE CREEK   CLOUDY    22  17  81 W13       29.74S WCI  10
6HR MIN TEMP:  22; 6HR MAX TEMP:  25; 6HR PCP: TRACE;

KOKOMO *+      CLOUDY    25  19  80 W16       29.71S WCI  12
6HR MIN TEMP:  25; 6HR MAX TEMP:  27;

MARION +       LGT SNOW  24  17  73 W16       29.70F WCI  11
MT COMFORT *+  CLOUDY    23  18  80 W14       29.73S WCI  11
SHELBYVILLE    CLOUDY    23  17  78 W15       29.73F WCI  10
6HR MIN TEMP:  23; 6HR MAX TEMP:  27; 6HR PCP: TRACE;

ZIONSVILLE +   CLOUDY    21  19  89 W13G22    29.73F WCI   9
6HR MIN TEMP:  21; 6HR MAX TEMP:  23;


$$

INZ033-034-041-042-049-050-058-059-090700-
EAST CENTRAL INDIANA

CITY           SKY/WX    TMP DP  RH WIND       PRES   REMARKS
MUNCIE         LGT SNOW  25  20  81 W12       29.69S WCI  14
6HR MIN TEMP:  25; 6HR MAX TEMP:  28; 6HR PCP:  0.01;


$$

INZ060-061-067>069-081>083-085>088-090700-
SOUTHWEST INDIANA

CITY           SKY/WX    TMP DP  RH WIND       PRES   REMARKS
EVANSVILLE     CLOUDY    24  14  65 W7        29.88F WCI  16
6HR MIN TEMP:  24; 6HR MAX TEMP:  26; 6HR PCP:  0.01;

HUNTINGBURG *+ CLOUDY    21  14  73 W10       29.85F WCI  10
6HR MIN TEMP:  21; 6HR MAX TEMP:  27;

WASHINGTON +   CLOUDY    21  15  76 W8        29.84F WCI  11
6HR MIN TEMP:  20; 6HR MAX TEMP:  24;


$$

INZ062-063-066-070>080-084-089>092-090700-
SOUTH CENTRAL AND SOUTHEAST INDIANA

CITY           SKY/WX    TMP DP  RH WIND       PRES   REMARKS
BEDFORD +      FLURRIES  21  18  86 W8        29.80F WCI  12
BLOOMINGTON    LGT SNOW  20  16  84 W8        29.78S FOG     WCI  10
6HR MIN TEMP:  20; 6HR MAX TEMP:  23; 6HR PCP: TRACE;

MADISON *+     CLOUDY    23  16  74 W13       29.79S WCI  11
NORTH VERNON + PTCLDY    21  16  79 CALM      29.77F
SEYMOUR +      FLURRIES  23  16  74 W14       29.79F WCI  11

$$




USA.gov is the U.S. government's official web portal to all federal, state and local government web resources and services.